| time (UTC) | temp F | wind direction | speed MPH | gust MPH | rain 1hr in | rain 24hr in | rain mn in | humidity % | barometer mb |
| 20260831202503 | 77 | 225 | 2.0 | 4.0 | 0.00 | 0.00 | 0.00 | 41 | 1014.9 |
| 20260831202003 | 77 | 225 | 3.0 | 5.0 | 0.00 | 0.00 | 0.00 | 40 | 1014.9 |
| 20260831201504 | 77 | 225 | 3.0 | 5.0 | 0.00 | 0.00 | 0.00 | 40 | 1014.7 |
| 20260831201003 | 78 | 225 | 3.0 | 5.0 | 0.00 | 0.00 | 0.00 | 40 | 1014.8 |
| 20260831200503 | 78 | 225 | 2.0 | 4.0 | 0.00 | 0.00 | 0.00 | 39 | 1014.8 |
| 20260831200004 | 78 | 232 | 2.0 | 4.0 | 0.00 | 0.00 | 0.00 | 39 | 1014.7 |
| 20260831195504 | 78 | 236 | 2.0 | 4.0 | 0.00 | 0.00 | 0.00 | 38 | 1014.7 |
| 20260831195003 | 79 | 233 | 2.0 | 4.0 | 0.00 | 0.00 | 0.00 | 37 | 1014.8 |
| 20260831194503 | 80 | 218 | 2.0 | 4.0 | 0.00 | 0.00 | 0.00 | 36 | 1014.7 |
| 20260831194003 | 80 | 188 | 1.0 | 4.0 | 0.00 | 0.00 | 0.00 | 35 | 1014.7 |
| 20260831193503 | 80 | 134 | 0.0 | 4.0 | 0.00 | 0.00 | 0.00 | 35 | 1014.7 |
| 20260831193004 | 81 | 143 | 1.0 | 4.0 | 0.00 | 0.00 | 0.00 | 35 | 1014.7 |
| 20260831192503 | 81 | 158 | 1.0 | 4.0 | 0.00 | 0.00 | 0.00 | 35 | 1014.7 |
| 20260831191504 | 81 | 143 | 1.0 | 4.0 | 0.00 | 0.00 | 0.00 | 34 | 1014.3 |
| 20260831191003 | 81 | 128 | 1.0 | 5.0 | 0.00 | 0.00 | 0.00 | 34 | 1014.5 |
| 20260831190503 | 81 | 125 | 1.0 | 5.0 | 0.00 | 0.00 | 0.00 | 34 | 1014.4 |
| 20260831190004 | 81 | 131 | 0.0 | 4.0 | 0.00 | 0.00 | 0.00 | 34 | 1014.4 |
| 20260831185504 | 81 | 138 | 1.0 | 4.0 | 0.00 | 0.00 | 0.00 | 34 | 1014.3 |
| 20260831185003 | 81 | 119 | 1.0 | 4.0 | 0.00 | 0.00 | 0.00 | 34 | 1014.3 |
| 20260831184504 | 81 | 76 | 0.0 | 4.0 | 0.00 | 0.00 | 0.00 | 33 | 1014.3 |
| 20260831184002 | 82 | 61 | 1.0 | 4.0 | 0.00 | 0.00 | 0.00 | 33 | 1014.2 |
| 20260831183003 | 82 | 115 | 2.0 | 6.0 | 0.00 | 0.00 | 0.00 | 33 | 1013.9 |
| 20260831182504 | 82 | 127 | 1.0 | 4.0 | 0.00 | 0.00 | 0.00 | 33 | 1014.1 |
| 20260831182003 | 82 | 115 | 1.0 | 4.0 | 0.00 | 0.00 | 0.00 | 32 | 1014.0 |
| 20260831181503 | 82 | 105 | 1.0 | 4.0 | 0.00 | 0.00 | 0.00 | 32 | 1014.1 |
| 20260831181003 | 83 | 113 | 1.0 | 4.0 | 0.00 | 0.00 | 0.00 | 32 | 1013.9 |
| 20260831180503 | 83 | 108 | 1.0 | 4.0 | 0.00 | 0.00 | 0.00 | 32 | 1013.9 |
| 20260831180004 | 83 | 85 | 1.0 | 5.0 | 0.00 | 0.00 | 0.00 | 32 | 1013.9 |
| 20260831175504 | 83 | 75 | 2.0 | 7.0 | 0.00 | 0.00 | 0.00 | 31 | 1014.0 |
| 20260831175003 | 83 | 71 | 2.0 | 7.0 | 0.00 | 0.00 | 0.00 | 31 | 1013.9 |
| 20260831174504 | 83 | 85 | 2.0 | 5.0 | 0.00 | 0.00 | 0.00 | 31 | 1013.8 |
| 20260831174003 | 83 | 98 | 2.0 | 5.0 | 0.00 | 0.00 | 0.00 | 31 | 1014.0 |
| 20260831173503 | 84 | 93 | 2.0 | 6.0 | 0.00 | 0.00 | 0.00 | 31 | 1013.8 |
| 20260831173003 | 84 | 93 | 3.0 | 6.0 | 0.00 | 0.00 | 0.00 | 31 | 1013.9 |
| 20260831172004 | 84 | 79 | 4.0 | 9.0 | 0.00 | 0.00 | 0.00 | 31 | 1013.9 |
| 20260831171503 | 84 | 89 | 4.0 | 9.0 | 0.00 | 0.00 | 0.00 | 31 | 1013.8 |
| 20260831171003 | 84 | 96 | 3.0 | 9.0 | 0.00 | 0.00 | 0.00 | 31 | 1014.0 |
| 20260831170503 | 85 | 90 | 3.0 | 7.0 | 0.00 | 0.00 | 0.00 | 31 | 1013.9 |
| 20260831170004 | 85 | 84 | 3.0 | 10.0 | 0.00 | 0.00 | 0.00 | 31 | 1013.7 |
| 20260831165503 | 85 | 102 | 5.0 | 10.0 | 0.00 | 0.00 | 0.00 | 30 | 1013.9 |
| 20260831165005 | 85 | 102 | 6.0 | 12.0 | 0.00 | 0.00 | 0.00 | 30 | 1013.7 |
| 20260831164504 | 85 | 96 | 6.0 | 13.0 | 0.00 | 0.00 | 0.00 | 30 | 1013.8 |
| 20260831164003 | 85 | 96 | 6.0 | 13.0 | 0.00 | 0.00 | 0.00 | 30 | 1013.7 |
| 20260831163502 | 86 | 99 | 5.0 | 13.0 | 0.00 | 0.00 | 0.00 | 30 | 1013.7 |
| 20260831163004 | 86 | 113 | 5.0 | 12.0 | 0.00 | 0.00 | 0.00 | 30 | 1013.7 |
| 20260831162503 | 86 | 102 | 5.0 | 12.0 | 0.00 | 0.00 | 0.00 | 30 | 1013.7 |
| 20260831162006 | 86 | 91 | 5.0 | 11.0 | 0.00 | 0.00 | 0.00 | 29 | 1013.5 |
| 20260831161505 | 86 | 91 | 6.0 | 12.0 | 0.00 | 0.00 | 0.00 | 29 | 1013.6 |
| 20260831161006 | 86 | 90 | 6.0 | 12.0 | 0.00 | 0.00 | 0.00 | 29 | 1013.6 |
| 20260831160507 | 86 | 97 | 7.0 | 15.0 | 0.00 | 0.00 | 0.00 | 29 | 1013.4 |
| 20260831160006 | 87 | 87 | 7.0 | 15.0 | 0.00 | 0.00 | 0.00 | 28 | 1013.4 |
| 20260831155508 | 87 | 63 | 7.0 | 14.0 | 0.00 | 0.00 | 0.00 | 28 | 1013.5 |
| 20260831155006 | 87 | 74 | 7.0 | 14.0 | 0.00 | 0.00 | 0.00 | 28 | 1013.4 |
| 20260831154004 | 87 | 88 | 7.0 | 13.0 | 0.00 | 0.00 | 0.00 | 28 | 1013.3 |
| 20260831153503 | 88 | 311 | 8.0 | 13.0 | 0.00 | 0.00 | 0.00 | 28 | 1013.3 |
| 20260831152504 | 88 | 93 | 7.0 | 14.0 | 0.00 | 0.00 | 0.00 | 28 | 1013.6 |
| 20260831152004 | 88 | 87 | 8.0 | 13.0 | 0.00 | 0.00 | 0.00 | 28 | 1013.5 |
| 20260831151504 | 88 | 61 | 8.0 | 17.0 | 0.00 | 0.00 | 0.00 | 28 | 1013.4 |
| 20260831151003 | 88 | 69 | 8.0 | 17.0 | 0.00 | 0.00 | 0.00 | 27 | 1013.3 |
| 20260831150503 | 88 | 86 | 8.0 | 14.0 | 0.00 | 0.00 | 0.00 | 27 | 1013.5 |
| 20260831150004 | 88 | 92 | 9.0 | 16.0 | 0.00 | 0.00 | 0.00 | 27 | 1013.5 |
| 20260831145003 | 89 | 86 | 8.0 | 15.0 | 0.00 | 0.00 | 0.00 | 27 | 1013.5 |
| 20260831144504 | 89 | 96 | 8.0 | 15.0 | 0.00 | 0.00 | 0.00 | 26 | 1013.5 |
| 20260831144003 | 90 | 87 | 7.0 | 15.0 | 0.00 | 0.00 | 0.00 | 26 | 1013.4 |
| 20260831143503 | 90 | 62 | 7.0 | 14.0 | 0.00 | 0.00 | 0.00 | 27 | 1013.6 |
| 20260831143004 | 90 | 76 | 8.0 | 15.0 | 0.00 | 0.00 | 0.00 | 26 | 1013.6 |
| 20260831142503 | 90 | 71 | 8.0 | 15.0 | 0.00 | 0.00 | 0.00 | 26 | 1013.6 |
| 20260831142003 | 90 | 43 | 6.0 | 15.0 | 0.00 | 0.00 | 0.00 | 26 | 1013.7 |
| 20260831141504 | 91 | 67 | 6.0 | 13.0 | 0.00 | 0.00 | 0.00 | 26 | 1013.7 |
| 20260831141003 | 91 | 76 | 7.0 | 13.0 | 0.00 | 0.00 | 0.00 | 26 | 1013.7 |
| 20260831140503 | 91 | 62 | 6.0 | 122.0 | 0.00 | 0.00 | 0.00 | 26 | 1013.7 |
| 20260831140004 | 91 | 58 | 6.0 | 122.0 | 0.00 | 0.00 | 0.00 | 26 | 1013.6 |
| 20260831135504 | 91 | 50 | 6.0 | 122.0 | 0.00 | 0.00 | 0.00 | 26 | 1013.8 |
| 20260831135003 | 91 | 54 | 6.0 | 13.0 | 0.00 | 0.00 | 0.00 | 26 | 1013.8 |
| 20260831134504 | 91 | 67 | 5.0 | 11.0 | 0.00 | 0.00 | 0.00 | 27 | 1013.8 |
| 20260831134003 | 91 | 74 | 6.0 | 12.0 | 0.00 | 0.00 | 0.00 | 27 | 1013.8 |
| 20260831133503 | 91 | 55 | 7.0 | 13.0 | 0.00 | 0.00 | 0.00 | 28 | 1013.8 |
| 20260831133004 | 91 | 41 | 7.0 | 13.0 | 0.00 | 0.00 | 0.00 | 27 | 1013.8 |
| 20260831132503 | 91 | 53 | 6.0 | 13.0 | 0.00 | 0.00 | 0.00 | 27 | 1013.8 |
| 20260831131004 | 91 | 108 | 6.0 | 12.0 | 0.00 | 0.00 | 0.00 | 27 | 1013.9 |
| 20260831130503 | 91 | 112 | 6.0 | 12.0 | 0.00 | 0.00 | 0.00 | 27 | 1013.9 |
| 20260831130004 | 91 | 104 | 6.0 | 13.0 | 0.00 | 0.00 | 0.00 | 27 | 1014.0 |
| 20260831125503 | 91 | 93 | 7.0 | 13.0 | 0.00 | 0.00 | 0.00 | 28 | 1014.1 |
| 20260831125003 | 91 | 90 | 7.0 | 14.0 | 0.00 | 0.00 | 0.00 | 27 | 1013.9 |
| 20260831124504 | 91 | 96 | 4.0 | 14.0 | 0.00 | 0.00 | 0.00 | 28 | 1014.1 |
| 20260831124003 | 91 | 73 | 4.0 | 13.0 | 0.00 | 0.00 | 0.00 | 28 | 1014.1 |
| 20260831123503 | 91 | 67 | 5.0 | 13.0 | 0.00 | 0.00 | 0.00 | 28 | 1014.0 |
| 20260831123004 | 91 | 75 | 6.0 | 13.0 | 0.00 | 0.00 | 0.00 | 29 | 1014.3 |
| 20260831122503 | 91 | 80 | 7.0 | 13.0 | 0.00 | 0.00 | 0.00 | 30 | 1014.1 |
| 20260831122003 | 91 | 87 | 7.0 | 14.0 | 0.00 | 0.00 | 0.00 | 30 | 1014.2 |
| 20260831121504 | 91 | 85 | 6.0 | 14.0 | 0.00 | 0.00 | 0.00 | 30 | 1014.3 |
| 20260831121003 | 91 | 73 | 5.0 | 10.0 | 0.00 | 0.00 | 0.00 | 30 | 1014.4 |
| 20260831120502 | 90 | 94 | 6.0 | 13.0 | 0.00 | 0.00 | 0.00 | 30 | 1014.3 |
| 20260831114503 | 90 | 99 | 8.0 | 14.0 | 0.00 | 0.00 | 0.00 | 30 | 1014.6 |
| 20260831113004 | 90 | 86 | 6.0 | 13.0 | 0.00 | 0.00 | 0.00 | 30 | 1014.7 |
| 20260831112504 | 90 | 99 | 7.0 | 14.0 | 0.00 | 0.00 | 0.00 | 31 | 1014.8 |
| 20260831112003 | 90 | 118 | 7.0 | 14.0 | 0.00 | 0.00 | 0.00 | 30 | 1014.8 |
| 20260831111504 | 90 | 105 | 6.0 | 14.0 | 0.00 | 0.00 | 0.00 | 30 | 1014.8 |
| 20260831111003 | 90 | 82 | 5.0 | 14.0 | 0.00 | 0.00 | 0.00 | 30 | 1014.9 |
| 20260831110503 | 90 | 88 | 5.0 | 12.0 | 0.00 | 0.00 | 0.00 | 31 | 1014.9 |
| 20260831110004 | 89 | 106 | 6.0 | 15.0 | 0.00 | 0.00 | 0.00 | 31 | 1015.1 |
| 20260831105502 | 89 | 106 | 6.0 | 15.0 | 0.00 | 0.00 | 0.00 | 31 | 1015.0 |
| 20260831105004 | 89 | 115 | 7.0 | 13.0 | 0.00 | 0.00 | 0.00 | 31 | 1015.2 |
| 20260831104503 | 90 | 115 | 7.0 | 13.0 | 0.00 | 0.00 | 0.00 | 31 | 1015.1 |
| 20260831103004 | 90 | 37 | 5.0 | 11.0 | 0.00 | 0.00 | 0.00 | 31 | 1015.1 |
| 20260831102503 | 90 | 67 | 5.0 | 11.0 | 0.00 | 0.00 | 0.00 | 31 | 1015.3 |
| 20260831102004 | 90 | 74 | 5.0 | 10.0 | 0.00 | 0.00 | 0.00 | 31 | 1015.3 |
| 20260831101503 | 90 | 45 | 5.0 | 10.0 | 0.00 | 0.00 | 0.00 | 31 | 1015.3 |
| 20260831100503 | 90 | 95 | 5.0 | 13.0 | 0.00 | 0.00 | 0.00 | 31 | 1015.4 |
| 20260831100004 | 89 | 99 | 6.0 | 13.0 | 0.00 | 0.00 | 0.00 | 31 | 1015.4 |
| 20260831095503 | 90 | 67 | 6.0 | 13.0 | 0.00 | 0.00 | 0.00 | 31 | 1015.5 |
| 20260831095002 | 89 | 37 | 5.0 | 13.0 | 0.00 | 0.00 | 0.00 | 31 | 1015.5 |
| 20260831094504 | 89 | 70 | 4.0 | 11.0 | 0.00 | 0.00 | 0.00 | 31 | 1015.6 |
| 20260831094003 | 89 | 108 | 5.0 | 11.0 | 0.00 | 0.00 | 0.00 | 32 | 1015.6 |
| 20260831093503 | 89 | 113 | 5.0 | 11.0 | 0.00 | 0.00 | 0.00 | 32 | 1015.7 |
| 20260831093004 | 89 | 95 | 5.0 | 11.0 | 0.00 | 0.00 | 0.00 | 32 | 1015.7 |
| 20260831092502 | 89 | 85 | 5.0 | 11.0 | 0.00 | 0.00 | 0.00 | 32 | 1015.8 |
| 20260831091504 | 89 | 94 | 3.0 | 11.0 | 0.00 | 0.00 | 0.00 | 33 | 1015.8 |
| 20260831091003 | 89 | 131 | 2.0 | 8.0 | 0.00 | 0.00 | 0.00 | 35 | 1015.8 |
| 20260831090504 | 88 | 107 | 3.0 | 8.0 | 0.00 | 0.00 | 0.00 | 36 | 1015.7 |
| 20260831085503 | 89 | 99 | 3.0 | 9.0 | 0.00 | 0.00 | 0.00 | 34 | 1015.8 |
| 20260831084503 | 89 | 296 | 2.0 | 9.0 | 0.00 | 0.00 | 0.00 | 35 | 1015.9 |
| 20260831084003 | 89 | 285 | 1.0 | 5.0 | 0.00 | 0.00 | 0.00 | 36 | 1015.9 |
| 20260831083503 | 88 | 331 | 2.0 | 7.0 | 0.00 | 0.00 | 0.00 | 37 | 1016.0 |
| 20260831083004 | 87 | 328 | 3.0 | 7.0 | 0.00 | 0.00 | 0.00 | 37 | 1016.1 |
| 20260831082503 | 87 | 153 | 2.0 | 5.0 | 0.00 | 0.00 | 0.00 | 38 | 1016.1 |
| 20260831082003 | 86 | 110 | 3.0 | 6.0 | 0.00 | 0.00 | 0.00 | 38 | 1016.2 |
| 20260831081503 | 86 | 96 | 3.0 | 7.0 | 0.00 | 0.00 | 0.00 | 37 | 1016.2 |
| 20260831081003 | 86 | 96 | 3.0 | 7.0 | 0.00 | 0.00 | 0.00 | 38 | 1016.1 |
| 20260831080503 | 86 | 70 | 3.0 | 8.0 | 0.00 | 0.00 | 0.00 | 38 | 1016.2 |
| 20260831080004 | 86 | 83 | 2.0 | 8.0 | 0.00 | 0.00 | 0.00 | 38 | 1015.9 |
| 20260831075503 | 86 | 77 | 1.0 | 7.0 | 0.00 | 0.00 | 0.00 | 38 | 1015.9 |
| 20260831074503 | 85 | 57 | 2.0 | 7.0 | 0.00 | 0.00 | 0.00 | 38 | 1016.0 |
| 20260831074003 | 85 | 53 | 2.0 | 7.0 | 0.00 | 0.00 | 0.00 | 38 | 1016.1 |
| 20260831073503 | 85 | 94 | 2.0 | 5.0 | 0.00 | 0.00 | 0.00 | 39 | 1016.1 |
| 20260831073003 | 84 | 141 | 1.0 | 6.0 | 0.00 | 0.00 | 0.00 | 40 | 1016.0 |
| 20260831072003 | 84 | 21 | 2.0 | 6.0 | 0.00 | 0.00 | 0.00 | 42 | 1016.0 |
| 20260831071503 | 83 | 46 | 2.0 | 5.0 | 0.00 | 0.00 | 0.00 | 43 | 1015.9 |
| 20260831071003 | 83 | 62 | 2.0 | 5.0 | 0.00 | 0.00 | 0.00 | 44 | 1016.1 |
| 20260831070502 | 83 | 75 | 1.0 | 4.0 | 0.00 | 0.00 | 0.00 | 45 | 1015.9 |
| 20260831065003 | 81 | 93 | 1.0 | 4.0 | 0.00 | 0.00 | 0.00 | 46 | 1016.1 |
| 20260831064503 | 81 | 56 | 2.0 | 4.0 | 0.00 | 0.00 | 0.00 | 45 | 1016.2 |
| 20260831064003 | 81 | 60 | 2.0 | 4.0 | 0.00 | 0.00 | 0.00 | 46 | 1016.2 |
| 20260831063502 | 81 | 82 | 2.0 | 6.0 | 0.00 | 0.00 | 0.00 | 46 | 1016.3 |
| 20260831063003 | 80 | 71 | 2.0 | 6.0 | 0.00 | 0.00 | 0.00 | 46 | 1016.3 |
| 20260831062503 | 80 | 129 | 1.0 | 4.0 | 0.00 | 0.00 | 0.00 | 47 | 1016.4 |
| 20260831062003 | 79 | 202 | 0.0 | 3.0 | 0.00 | 0.00 | 0.00 | 46 | 1016.3 |
| 20260831061504 | 78 | 225 | 1.0 | 3.0 | 0.00 | 0.00 | 0.00 | 46 | 1016.3 |
| 20260831061003 | 78 | 225 | 1.0 | 3.0 | 0.00 | 0.00 | 0.00 | 46 | 1016.3 |
| 20260831060503 | 78 | 222 | 0.0 | 3.0 | 0.00 | 0.00 | 0.00 | 47 | 1016.2 |
| 20260831060004 | 77 | 95 | 0.0 | 3.0 | 0.00 | 0.00 | 0.00 | 48 | 1016.3 |
| 20260831055503 | 77 | 33 | 0.0 | 3.0 | 0.00 | 0.00 | 0.00 | 48 | 1016.1 |
| 20260831055003 | 76 | 19 | 0.0 | 3.0 | 0.00 | 0.00 | 0.00 | 49 | 1016.1 |
| 20260831054504 | 75 | 50 | 0.0 | 3.0 | 0.00 | 0.00 | 0.00 | 50 | 1016.3 |
| 20260831054003 | 74 | 53 | 1.0 | 4.0 | 0.00 | 0.00 | 0.00 | 50 | 1016.2 |
| 20260831053503 | 73 | 58 | 1.0 | 4.0 | 0.00 | 0.00 | 0.00 | 51 | 1016.1 |
| 20260831053004 | 73 | 92 | 0.0 | 3.0 | 0.00 | 0.00 | 0.00 | 52 | 1016.3 |
| 20260831052503 | 72 | 69 | 0.0 | 2.0 | 0.00 | 0.00 | 0.00 | 53 | 1016.3 |
| 20260831052003 | 71 | 92 | 0.0 | 2.0 | 0.00 | 0.00 | 0.00 | 54 | 1016.3 |
| 20260831051503 | 70 | 147 | 0.0 | 2.0 | 0.00 | 0.00 | 0.00 | 55 | 1016.3 |
| 20260831051003 | 70 | 165 | 0.0 | 2.0 | 0.00 | 0.00 | 0.00 | 56 | 1016.2 |
| 20260831050502 | 70 | 174 | 0.0 | 2.0 | 0.00 | 0.00 | 0.00 | 56 | 1016.3 |
| 20260831050004 | 69 | 216 | 0.0 | 3.0 | 0.00 | 0.00 | 0.00 | 57 | 1016.3 |
| 20260831045503 | 69 | 222 | 1.0 | 4.0 | 0.00 | 0.00 | 0.00 | 57 | 1016.2 |
| 20260831045002 | 69 | 227 | 1.0 | 4.0 | 0.00 | 0.00 | 0.00 | 57 | 1016.3 |
| 20260831044503 | 69 | 224 | 1.0 | 4.0 | 0.00 | 0.00 | 0.00 | 57 | 1016.2 |
| 20260831044003 | 68 | 222 | 2.0 | 5.0 | 0.00 | 0.00 | 0.00 | 57 | 1016.2 |
| 20260831043503 | 68 | 229 | 1.0 | 5.0 | 0.00 | 0.00 | 0.00 | 57 | 1016.2 |
| 20260831043004 | 68 | 237 | 1.0 | 5.0 | 0.00 | 0.00 | 0.00 | 57 | 1016.0 |
| 20260831042503 | 68 | 239 | 1.0 | 4.0 | 0.00 | 0.00 | 0.00 | 58 | 1016.0 |
| 20260831041504 | 68 | 255 | 0.0 | 3.0 | 0.00 | 0.00 | 0.00 | 58 | 1015.9 |
| 20260831040003 | 68 | 203 | 0.0 | 2.0 | 0.00 | 0.00 | 0.00 | 57 | 1015.8 |
| 20260831035503 | 68 | 205 | 1.0 | 4.0 | 0.00 | 0.00 | 0.00 | 57 | 1016.0 |
| 20260831035003 | 68 | 215 | 1.0 | 4.0 | 0.00 | 0.00 | 0.00 | 57 | 1016.1 |
| 20260831034503 | 68 | 235 | 1.0 | 4.0 | 0.00 | 0.00 | 0.00 | 57 | 1015.9 |
| 20260831033502 | 68 | 223 | 1.0 | 4.0 | 0.00 | 0.00 | 0.00 | 57 | 1016.0 |
| 20260831033004 | 68 | 224 | 1.0 | 4.0 | 0.00 | 0.00 | 0.00 | 57 | 1015.9 |
| 20260831032503 | 68 | 225 | 1.0 | 3.0 | 0.00 | 0.00 | 0.00 | 57 | 1016.0 |
| 20260831032003 | 68 | 217 | 0.0 | 3.0 | 0.00 | 0.00 | 0.00 | 57 | 1016.0 |
| 20260831031503 | 68 | 210 | 0.0 | 3.0 | 0.00 | 0.00 | 0.00 | 57 | 1015.8 |
| 20260831031003 | 69 | 250 | 0.0 | 3.0 | 0.00 | 0.00 | 0.00 | 57 | 1015.8 |
| 20260831030503 | 69 | 234 | 0.0 | 3.0 | 0.00 | 0.00 | 0.00 | 57 | 1015.8 |
| 20260831025503 | 69 | 181 | 0.0 | 2.0 | 0.00 | 0.00 | 0.00 | 56 | 1015.8 |
| 20260831024504 | 69 | 220 | 0.0 | 2.0 | 0.00 | 0.00 | 0.00 | 56 | 1016.0 |
| 20260831024003 | 69 | 235 | 0.0 | 4.0 | 0.00 | 0.00 | 0.00 | 56 | 1015.8 |
| 20260831023503 | 69 | 239 | 0.0 | 4.0 | 0.00 | 0.00 | 0.00 | 56 | 1015.8 |
| 20260831023004 | 69 | 240 | 1.0 | 4.0 | 0.00 | 0.00 | 0.00 | 56 | 1015.7 |
| 20260831022003 | 69 | 224 | 2.0 | 6.0 | 0.00 | 0.00 | 0.00 | 56 | 1015.7 |
| 20260831021504 | 69 | 222 | 2.0 | 6.0 | 0.00 | 0.00 | 0.00 | 56 | 1015.7 |
| 20260831021002 | 69 | 237 | 2.0 | 6.0 | 0.00 | 0.00 | 0.00 | 56 | 1015.6 |
| 20260831020503 | 69 | 255 | 1.0 | 6.0 | 0.00 | 0.00 | 0.00 | 56 | 1015.7 |
| 20260831020004 | 69 | 248 | 1.0 | 4.0 | 0.00 | 0.00 | 0.00 | 56 | 1015.7 |
| 20260831015003 | 69 | 244 | 0.0 | 4.0 | 0.00 | 0.00 | 0.00 | 56 | 1015.6 |
| 20260831014503 | 69 | 247 | 0.0 | 4.0 | 0.00 | 0.00 | 0.00 | 56 | 1015.6 |
| 20260831014003 | 69 | 230 | 0.0 | 3.0 | 0.00 | 0.00 | 0.00 | 55 | 1015.5 |
| 20260831013503 | 69 | 240 | 0.0 | 3.0 | 0.00 | 0.00 | 0.00 | 55 | 1015.7 |
| 20260831013003 | 69 | 238 | 0.0 | 3.0 | 0.00 | 0.00 | 0.00 | 55 | 1015.8 |
| 20260831012503 | 69 | 228 | 0.0 | 3.0 | 0.00 | 0.00 | 0.00 | 54 | 1015.8 |
| 20260831012003 | 69 | 228 | 1.0 | 4.0 | 0.00 | 0.00 | 0.00 | 54 | 1015.8 |
| 20260831011504 | 70 | 225 | 1.0 | 4.0 | 0.00 | 0.00 | 0.00 | 54 | 1015.7 |
| 20260831011003 | 70 | 224 | 2.0 | 4.0 | 0.00 | 0.00 | 0.00 | 54 | 1015.7 |
| 20260831010502 | 70 | 224 | 1.0 | 4.0 | 0.00 | 0.00 | 0.00 | 54 | 1015.8 |
| 20260831010004 | 70 | 225 | 0.0 | 3.0 | 0.00 | 0.00 | 0.00 | 55 | 1015.8 |
| 20260831005004 | 70 | 228 | 0.0 | 2.0 | 0.00 | 0.00 | 0.00 | 54 | 1015.8 |
| 20260831004003 | 70 | 260 | 0.0 | 2.0 | 0.00 | 0.00 | 0.00 | 54 | 1016.0 |
| 20260831003502 | 70 | 145 | 0.0 | 1.0 | 0.00 | 0.00 | 0.00 | 54 | 1015.9 |
| 20260831003004 | 70 | 135 | 0.0 | 1.0 | 0.00 | 0.00 | 0.00 | 53 | 1015.9 |
| 20260831002503 | 70 | 225 | 0.0 | 1.0 | 0.00 | 0.00 | 0.00 | 53 | 1016.0 |
| 20260831002002 | 70 | 225 | 0.0 | 2.0 | 0.00 | 0.00 | 0.00 | 53 | 1015.8 |
| 20260831001503 | 70 | 225 | 0.0 | 3.0 | 0.00 | 0.00 | 0.00 | 53 | 1015.8 |
| 20260831001003 | 71 | 225 | 0.0 | 3.0 | 0.00 | 0.00 | 0.00 | 53 | 1015.8 |
| 20260831000503 | 71 | 181 | 0.0 | 2.0 | 0.00 | 0.00 | 0.00 | 53 | 1015.8 |
| 20260831000004 | 71 | 192 | 0.0 | 2.0 | 0.00 | 0.00 | 0.00 | 52 | 1015.7 |
| 20260830235003 | 71 | 242 | 0.0 | 2.0 | 0.00 | 0.00 | 0.00 | 52 | 1015.8 |
| 20260830234504 | 71 | 244 | 0.0 | 2.0 | 0.00 | 0.00 | 0.00 | 52 | 1015.8 |
| 20260830233503 | 71 | 202 | 1.0 | 4.0 | 0.00 | 0.00 | 0.00 | 52 | 1015.9 |
| 20260830233003 | 71 | 226 | 2.0 | 4.0 | 0.00 | 0.00 | 0.00 | 52 | 1015.9 |
| 20260830232503 | 71 | 230 | 1.0 | 4.0 | 0.00 | 0.00 | 0.00 | 52 | 1015.9 |
| 20260830232003 | 71 | 245 | 1.0 | 3.0 | 0.00 | 0.00 | 0.00 | 52 | 1016.0 |
| 20260830231503 | 71 | 237 | 1.0 | 3.0 | 0.00 | 0.00 | 0.00 | 52 | 1016.0 |
| 20260830230503 | 71 | 170 | 0.0 | 2.0 | 0.00 | 0.00 | 0.00 | 51 | 1015.9 |
| 20260830230003 | 72 | 197 | 0.0 | 3.0 | 0.00 | 0.00 | 0.00 | 51 | 1016.0 |
| 20260830225002 | 72 | 225 | 0.0 | 3.0 | 0.00 | 0.00 | 0.00 | 50 | 1015.9 |
| 20260830224503 | 72 | 236 | 1.0 | 3.0 | 0.00 | 0.00 | 0.00 | 50 | 1016.0 |
| 20260830224003 | 72 | 236 | 1.0 | 4.0 | 0.00 | 0.00 | 0.00 | 50 | 1016.0 |
| 20260830223502 | 72 | 229 | 1.0 | 4.0 | 0.00 | 0.00 | 0.00 | 50 | 1016.0 |
| 20260830223004 | 72 | 221 | 0.0 | 3.0 | 0.00 | 0.00 | 0.00 | 49 | 1016.1 |
| 20260830222503 | 73 | 221 | 0.0 | 3.0 | 0.00 | 0.00 | 0.00 | 49 | 1016.0 |
| 20260830222002 | 73 | 243 | 0.0 | 4.0 | 0.00 | 0.00 | 0.00 | 49 | 1016.0 |
| 20260830221503 | 73 | 244 | 1.0 | 4.0 | 0.00 | 0.00 | 0.00 | 49 | 1016.1 |
| 20260830221003 | 73 | 234 | 1.0 | 4.0 | 0.00 | 0.00 | 0.00 | 49 | 1016.1 |
| 20260830220503 | 73 | 225 | 1.0 | 3.0 | 0.00 | 0.00 | 0.00 | 49 | 1016.3 |
| 20260830220003 | 73 | 213 | 0.0 | 3.0 | 0.00 | 0.00 | 0.00 | 49 | 1016.3 |
| 20260830215503 | 73 | 222 | 0.0 | 3.0 | 0.00 | 0.00 | 0.00 | 48 | 1016.3 |
| 20260830215003 | 73 | 225 | 0.0 | 3.0 | 0.00 | 0.00 | 0.00 | 48 | 1016.3 |
| 20260830214503 | 73 | 225 | 0.0 | 2.0 | 0.00 | 0.00 | 0.00 | 48 | 1016.3 |
| 20260830214003 | 73 | 225 | 0.0 | 2.0 | 0.00 | 0.00 | 0.00 | 48 | 1016.2 |
| 20260830213004 | 74 | 224 | 0.0 | 3.0 | 0.00 | 0.00 | 0.00 | 47 | 1016.1 |
| 20260830212503 | 74 | 208 | 0.0 | 3.0 | 0.00 | 0.00 | 0.00 | 47 | 1016.1 |
| 20260830212003 | 74 | 192 | 1.0 | 3.0 | 0.00 | 0.00 | 0.00 | 47 | 1016.2 |
| 20260830211503 | 74 | 201 | 0.0 | 4.0 | 0.00 | 0.00 | 0.00 | 47 | 1016.2 |
| 20260830211003 | 74 | 227 | 1.0 | 5.0 | 0.00 | 0.00 | 0.00 | 46 | 1016.1 |
| 20260830210503 | 74 | 230 | 2.0 | 5.0 | 0.00 | 0.00 | 0.00 | 46 | 1016.1 |
| 20260830210004 | 75 | 224 | 2.0 | 5.0 | 0.00 | 0.00 | 0.00 | 46 | 1016.0 |
| 20260830205503 | 75 | 228 | 2.0 | 4.0 | 0.00 | 0.00 | 0.00 | 46 | 1015.9 |
| 20260830205003 | 75 | 220 | 2.0 | 4.0 | 0.00 | 0.00 | 0.00 | 46 | 1016.1 |
| 20260830204504 | 75 | 210 | 2.0 | 4.0 | 0.00 | 0.00 | 0.00 | 46 | 1016.1 |
| 20260830204003 | 75 | 214 | 1.0 | 4.0 | 0.00 | 0.00 | 0.00 | 46 | 1016.0 |
| 20260830203003 | 75 | 225 | 2.0 | 4.0 | 0.00 | 0.00 | 0.00 | 46 | 1016.1 |